Peoria, IL

2:21 PM CST on December 06, 2016 (GMT -0600)
Greater Peoria Regional

Weather History for KPIA - August, 2012

Change the Weather History Date:

Tuesday, August 21, 2012

  Actual Average Record
Temperature  
Mean Temperature 68 °F 74 °F  
Max Temperature 82 °F 84 °F 99 °F (1983)
Min Temperature 54 °F 64 °F 45 °F (1950)
Degree Days  
Heating Degree Days 0 0  
Month to date heating degree days 0 0  
Since 1 June heating degree days 10 19  
Since 1 July heating degree days 0 1  
Cooling Degree Days 3 9  
Month to date cooling degree days 158 198  
Year to date cooling degree days 1159 829  
Since 1 June cooling degree days 966 748  
Growing Degree Days 18 (Base 50)    
Moisture  
Dew Point 50 °F    
Average Humidity 60    
Maximum Humidity 93    
Minimum Humidity 26    
Precipitation  
Precipitation 0.00 in 0.11 in 1.40 in (1964)
Month to date precipitation 1.99 2.18  
Year to date precipitation 15.11 23.89  
Snow  
Snow 0.00 in 0.00 in 0.00 in ()
Month to date snowfall 0.0 0.0  
Since 1 June snowfall 0.0 0.0  
Since 1 July snowfall 0.0 0.0  
Snow Depth 0.00 in    
Sea Level Pressure  
Sea Level Pressure 30.05 in    
Wind  
Wind Speed 2 mph (NE)    
Max Wind Speed 10 mph    
Max Gust Speed 15 mph    
Visibility 10 miles    
Events      
T = Trace of Precipitation, MM = Missing Value Source: NWS Daily Summary

Daily Weather History Graph

Daily Weather History Graph

Search for Another Location

Airport or City:

Trip Planner

Search our weather history database for the weather conditions in past years. The results will help you decide how hot, cold, wet, or windy it might be!

Date:

Astronomy

Aug. 21, 2012 Rise Set
Actual Time 6:15 AM CDT 7:47 PM CDT
Civil Twilight 5:46 AM CDT 8:15 PM CDT
Nautical Twilight 5:11 AM CDT 8:50 PM CDT
Astronomical Twilight 4:34 AM CDT 9:27 PM CDT
Moon 10:47 AM CDT (8/21) 9:45 PM CDT (8/21)
Length of Visible Light 14h 29m
Length of Day
13h 31m
Waxing Crescent, 19% of the Moon is Illuminated
Aug 21
Waxing Crescent
Aug 24
First Quarter
Aug 31
Full
Sep 8
Last Quarter
Sep 15
New

Hourly Weather History & Observations

Time (CDT) Temp. Dew Point Humidity Pressure Visibility Wind Dir Wind Speed Gust Speed Precip Events Conditions
12:54 AM 59.0 °F 53.1 °F 81% 30.00 in 10.0 mi Calm Calm - N/A   Clear
1:54 AM 57.9 °F 52.0 °F 81% 30.01 in 10.0 mi Calm Calm - N/A   Clear
2:54 AM 57.0 °F 53.1 °F 87% 30.02 in 10.0 mi Calm Calm - N/A   Scattered Clouds
3:54 AM 55.9 °F 53.1 °F 90% 30.02 in 10.0 mi Calm Calm - N/A   Clear
4:54 AM 55.0 °F 52.0 °F 89% 30.03 in 10.0 mi Calm Calm - N/A   Clear
5:54 AM 54.0 °F 52.0 °F 93% 30.04 in 10.0 mi Calm Calm - N/A   Clear
6:54 AM 55.0 °F 53.1 °F 93% 30.06 in 9.0 mi Calm Calm - N/A   Clear
7:54 AM 62.1 °F 55.9 °F 80% 30.06 in 10.0 mi ENE 3.5 mph - N/A   Clear
8:54 AM 69.1 °F 55.9 °F 63% 30.06 in 10.0 mi Calm Calm - N/A   Clear
9:54 AM 73.9 °F 54.0 °F 50% 30.07 in 10.0 mi ENE 3.5 mph - N/A   Clear
10:54 AM 75.9 °F 48.0 °F 37% 30.07 in 10.0 mi NE 8.1 mph - N/A   Clear
11:54 AM 78.1 °F 42.1 °F 28% 30.07 in 10.0 mi North 6.9 mph - N/A   Clear
12:54 PM 79.0 °F 43.0 °F 28% 30.07 in 10.0 mi ENE 5.8 mph - N/A   Clear
1:54 PM 80.1 °F 44.1 °F 28% 30.06 in 10.0 mi NNW 4.6 mph - N/A   Clear
2:54 PM 81.0 °F 43.0 °F 26% 30.05 in 10.0 mi Variable 3.5 mph - N/A   Clear
3:54 PM 81.0 °F 46.0 °F 29% 30.05 in 10.0 mi Calm Calm - N/A   Clear
4:54 PM 81.0 °F 46.0 °F 29% 30.05 in 10.0 mi Variable 3.5 mph - N/A   Clear
5:54 PM 80.1 °F 46.0 °F 30% 30.05 in 10.0 mi ENE 6.9 mph - N/A   Clear
6:54 PM 78.1 °F 48.0 °F 35% 30.05 in 10.0 mi North 3.5 mph - N/A   Clear
7:54 PM 71.1 °F 50.0 °F 47% 30.05 in 10.0 mi Calm Calm - N/A   Clear
8:54 PM 66.9 °F 51.1 °F 57% 30.07 in 10.0 mi ENE 3.5 mph - N/A   Clear
9:54 PM 64.9 °F 52.0 °F 63% 30.07 in 10.0 mi Calm Calm - N/A   Clear
10:54 PM 63.0 °F 52.0 °F 67% 30.08 in 10.0 mi Calm Calm - N/A   Clear
11:54 PM 60.1 °F 53.1 °F 78% 30.07 in 10.0 mi Calm Calm - N/A   Clear